Probability
27 24 22 24 24 22 22 23 24 26 28 29 30 30 28 27 26 23 20 20 21 21 19 19 20 19 19 19 18 17 16 16 17 16 15 14 13 11 7 4 3 3 3
29 27 26 28 28 27 26 27 26 26 29 31 31 31 29 27 26 23 20 19 21 21 20 20 21 21 21 20 18 17 17 18 18 16 14 13 13 12 9 5 4 3 3
32 31 33 35 36 34 33 32 30 29 31 33 33 33 31 28 26 25 22 21 22 21 20 21 22 25 25 23 20 19 18 18 18 16 12 11 12 12 11 8 6 5 3
34 35 37 40 41 39 36 34 33 33 33 33 33 34 33 31 31 29 25 24 24 24 23 23 24 26 26 23 22 21 20 19 18 16 13 12 12 11 10 9 7 6 4
39 40 40 42 42 39 35 33 32 32 33 33 34 34 34 32 30 29 25 23 25 26 26 24 23 23 20 18 19 20 19 17 16 16 15 14 12 10 9 7 6 5 4
47 46 45 44 42 38 34 31 31 32 32 33 33 34 33 29 24 21 20 21 24 25 25 24 22 18 15 14 14 15 14 13 13 14 15 14 12 10 9 7 7 5 3
51 49 47 46 44 42 38 36 35 36 36 34 33 34 33 28 19 13 15 20 23 24 24 23 20 17 14 13 12 12 11 9 10 12 14 14 13 12 9 8 7 5 4
48 47 47 46 46 46 43 41 40 41 41 39 37 36 34 28 19 11 11 17 22 23 24 22 20 17 15 13 12 11 11 10 9 10 11 12 12 11 9 6 6 4 3
46 46 47 47 48 47 45 43 43 45 46 44 40 38 37 31 21 11 10 15 20 21 22 21 19 17 15 13 12 12 12 12 10 9 8 8 9 8 5 5 5 4 2
47 47 48 49 50 49 47 46 47 48 48 45 40 39 40 35 23 13 12 18 21 20 21 20 18 15 11 10 10 12 12 12 11 10 8 8 8 6 4 5 6 5 3
47 49 50 50 49 48 50 50 49 49 49 45 41 39 40 35 23 12 11 17 21 20 19 19 16 10 6 5 6 8 9 10 10 11 11 11 10 9 6 5 6 6 5
49 51 51 51 47 46 48 47 44 44 43 41 38 35 35 32 21 10 7 9 14 16 17 15 11 6 3 2 2 4 6 7 8 10 11 11 12 12 11 7 6 7 7
51 50 50 49 45 43 42 38 35 35 34 33 32 31 32 30 23 13 6 4 5 9 11 9 6 3 2 1 2 3 5 6 7 7 8 10 11 13 14 11 8 8 8
47 46 44 42 39 36 35 32 30 30 29 28 28 30 30 28 24 17 11 6 4 4 5 5 4 3 2 2 3 4 6 7 7 8 9 11 11 12 14 14 12 10 9
41 40 37 34 31 29 28 27 26 26 24 22 22 25 24 22 19 15 11 8 5 4 3 4 4 4 3 4 5 6 8 9 9 10 12 12 11 10 11 12 11 9 8
37 35 32 30 28 26 25 24 21 19 16 12 12 14 15 13 9 6 6 5 3 3 3 4 5 5 4 4 6 7 9 10 10 11 11 11 10 8 7 7 7 5 5
34 31 29 30 29 27 24 23 21 18 13 9 6 6 7 5 2 1 1 1 1 2 3 4 6 7 6 6 6 8 8 10 11 11 10 9 8 8 6 4 3 3 3
29 27 27 29 30 28 26 25 24 22 20 16 10 4 2 1 0 0 0 0 1 3 4 6 8 8 8 8 7 7 8 10 12 12 10 8 7 7 6 4 3 2 2
26 26 27 28 29 27 26 25 25 24 23 21 17 11 4 1 0 0 0 1 3 4 5 7 9 10 10 9 8 7 8 8 10 10 8 7 6 6 5 4 4 3 2
26 24 25 26 26 25 24 24 24 23 21 19 18 16 9 4 3 3 2 2 3 6 7 7 9 10 9 9 8 7 7 6 6 6 6 5 5 3 3 3 3 3 4
23 21 20 22 22 21 21 21 21 20 17 14 14 14 11 8 8 8 6 5 5 6 7 7 8 8 8 7 7 7 7 6 5 4 3 3 2 1 1 1 1 2 3
18 16 17 18 17 16 15 16 16 15 13 11 11 11 10 10 10 9 9 9 8 8 7 7 7 7 7 6 6 7 8 7 6 3 1 1 0 0 0 0 0 1 2
10 11 13 15 14 12 11 12 12 12 11 11 11 11 10 10 10 10 11 13 12 11 9 8 7 7 7 7 6 7 7 6 5 4 1 0 0 0 0 0 0 0 1
5 6 8 11 12 11 10 10 10 11 12 12 13 12 11 11 11 12 13 14 15 14 13 11 9 9 8 7 6 6 6 5 4 4 2 1 0 0 0 0 0 0 0
3 4 5 7 8 9 10 10 10 11 12 13 13 12 12 13 13 13 13 14 14 14 14 13 12 10 8 7 5 5 5 3 3 3 3 1 0 0 0 0 0 0 0
3 4 4 4 5 8 9 9 10 11 11 12 12 11 12 14 14 13 12 12 12 12 12 13 12 9 8 6 6 5 4 2 1 2 2 2 1 0 0 0 0 0 0
Wind_Speed
7 6 5 5 5 5 4 3 4 3 3 3 3 3 3 3 3 3 3 3 3 3 2 2 2 2 1 1 1 1 1 2 2 1 2 3 2 3 3 3 4 5 5
7 6 5 5 5 5 5 4 4 4 4 4 4 4 4 4 3 3 4 3 3 3 2 2 2 2 1 1 1 1 1 2 2 3 2 2 3 3 3 4 4 4 4
8 7 6 5 5 5 4 4 4 4 4 4 4 4 4 4 4 4 3 3 3 3 2 2 2 1 2 1 2 1 1 1 2 2 3 2 2 3 3 3 3 3 4
7 7 6 5 5 4 4 4 4 4 4 4 4 3 3 3 3 3 3 3 2 2 2 2 2 2 2 2 2 2 1 1 2 2 2 2 2 2 3 3 3 3 3
6 7 6 5 5 4 4 4 4 4 5 4 4 4 3 3 3 2 2 3 2 2 2 2 1 1 1 1 1 1 1 2 2 2 3 2 3 3 4 3 3 3 3
4 5 5 5 4 4 4 4 4 4 4 4 4 4 4 4 3 3 2 2 2 2 2 2 3 3 3 2 2 1 1 2 2 2 3 3 4 4 4 4 3 3 3
3 3 4 4 4 4 5 4 5 5 4 4 4 4 4 3 4 4 3 3 3 3 3 3 3 3 4 3 3 3 3 3 3 3 3 3 4 4 4 4 4 4 3
4 4 4 4 4 4 4 4 4 4 4 4 5 5 4 4 6 5 5 4 4 3 3 3 3 2 3 3 3 3 3 3 4 3 3 3 3 2 3 4 4 3 3
3 3 4 4 4 4 4 4 4 4 4 4 4 5 5 4 7 7 6 4 4 4 4 4 4 4 4 4 4 4 4 3 3 3 3 3 3 3 3 2 2 2 3
1 2 2 3 3 4 4 4 3 3 3 4 4 4 5 5 8 9 8 4 4 4 3 4 4 4 4 5 5 4 4 4 3 3 3 4 4 5 6 5 3 3 3
0 0 1 2 3 3 3 3 3 3 4 4 4 4 4 5 7 9 9 5 4 3 3 3 3 5 6 6 6 5 5 3 3 3 4 4 4 4 5 5 5 4 4
0 0 1 1 3 3 2 3 4 4 5 5 5 5 4 4 5 8 9 9 5 4 3 3 3 6 7 7 6 5 5 4 3 3 3 4 4 4 4 5 5 4 4
0 1 1 1 1 2 3 4 4 4 5 4 4 4 4 3 4 7 9 9 8 5 3 3 3 5 6 5 8 7 6 4 4 4 4 4 4 4 4 3 4 3 4
1 2 2 1 2 2 2 3 3 4 4 4 4 4 4 3 3 3 4 4 6 6 4 3 4 6 5 5 5 5 5 4 4 4 3 3 2 2 3 3 3 3 3
1 2 2 3 3 2 2 2 3 3 4 4 4 3 3 4 3 4 3 3 4 4 3 3 3 3 4 4 4 4 5 4 5 4 3 3 3 3 3 3 3 3 4
2 3 3 3 2 3 3 2 2 3 3 4 5 5 4 4 4 5 5 5 5 5 4 4 5 5 5 5 5 5 5 4 4 4 4 3 3 3 3 3 3 4 4
3 3 3 3 3 3 3 3 3 2 3 3 4 4 4 4 4 5 5 4 5 6 5 5 5 5 5 5 5 5 5 4 4 4 4 3 3 3 3 3 4 4 4
3 3 3 3 3 3 3 3 3 2 2 2 2 3 4 4 4 4 4 3 3 4 6 5 5 4 4 4 4 4 4 4 4 4 4 3 3 3 4 4 4 4 4
3 2 2 2 2 3 3 3 3 2 2 2 1 2 3 3 3 4 4 4 5 5 5 5 4 4 3 3 3 4 3 3 4 4 4 4 4 4 4 4 4 5 5
2 3 2 2 3 3 3 3 3 3 3 2 2 2 2 2 2 3 4 5 5 4 4 4 3 3 3 3 3 3 3 3 3 4 3 3 4 4 5 5 5 4 4
3 3 3 3 3 3 3 3 3 3 3 3 3 3 4 3 4 4 4 4 4 4 4 3 2 2 3 3 3 3 3 3 2 3 2 3 3 3 4 4 4 5 4
4 3 2 3 3 2 2 3 3 3 3 3 3 3 5 4 4 4 4 4 3 3 3 3 3 2 2 3 3 3 3 3 2 2 2 3 3 3 4 4 4 4 4
4 4 2 2 2 2 3 3 3 3 3 3 2 1 2 3 3 3 3 3 3 3 2 2 2 2 2 2 2 2 2 3 2 2 2 2 3 3 4 4 5 4 4
5 4 3 2 2 2 3 3 3 3 3 2 1 1 1 2 3 3 2 2 2 2 2 2 2 3 3 2 2 1 1 1 2 2 3 4 4 4 4 4 5 5 5
5 4 4 3 3 3 3 2 2 2 2 2 1 1 1 1 1 1 1 1 1 2 2 1 1 2 2 3 2 1 0 0 1 2 4 4 5 5 5 5 4 4 5
4 4 4 3 3 3 3 3 2 2 2 2 2 2 1 1 1 1 1 1 1 2 1 1 1 1 2 1 1 2 1 1 1 3 4 4 5 4 4 4 5 4 4
Wind_Direction
177 185 180 180 190 196 201 189 185 188 179 184 194 189 189 198 203 210 220 205 205 210 214 201 211 242 237 242 218 219 203 172 184 175 140 144 147 153 157 171 169 173 173
179 180 181 181 187 196 196 189 186 186 190 194 193 201 206 203 205 213 229 224 211 212 219 210 218 207 207 251 258 245 214 184 180 180 170 167 177 178 179 197 192 190 179
177 181 181 189 190 195 193 187 189 191 197 197 196 206 213 208 205 211 220 234 220 210 208 211 217 202 212 231 240 236 234 200 173 181 188 172 177 184 192 215 211 208 197
175 180 180 187 186 189 190 186 187 189 194 203 205 209 215 211 209 210 213 219 220 213 193 196 201 203 213 236 229 226 227 206 184 186 190 180 181 195 196 211 220 216 218
174 181 181 184 186 187 187 188 189 196 202 197 202 211 213 217 223 219 230 213 207 205 190 191 173 157 160 213 235 222 209 212 205 198 198 186 193 194 214 222 225 221 223
166 176 171 179 188 193 193 190 189 201 207 199 204 213 219 220 182 189 225 224 204 212 209 204 189 164 162 165 156 148 189 213 219 212 206 205 211 205 214 224 221 219 231
166 172 169 182 197 204 208 199 197 203 207 209 217 216 215 193 188 188 201 223 212 215 221 223 231 202 188 189 198 200 212 231 231 233 234 229 214 204 209 220 223 225 235
174 184 186 186 200 205 213 210 209 208 211 213 221 222 217 208 197 195 202 224 226 217 220 217 218 215 209 209 219 215 220 230 233 230 242 250 232 211 213 220 229 239 249
188 196 194 193 198 201 212 217 218 216 217 219 223 222 223 209 196 196 202 227 229 224 221 217 213 213 204 212 218 225 225 226 227 222 220 221 220 212 219 236 227 232 246
213 213 195 189 200 212 220 220 222 221 227 232 235 230 227 212 196 198 199 225 229 225 221 217 207 203 192 205 220 227 230 229 216 206 216 225 222 216 213 218 221 230 245
304 248 214 196 205 215 217 214 220 226 227 232 236 237 230 210 194 197 196 216 231 230 229 227 204 189 200 214 227 235 234 238 229 220 217 217 215 209 208 215 219 220 234
105 234 236 226 241 234 208 211 218 227 233 235 234 240 232 209 194 201 203 213 231 239 241 232 201 197 203 215 224 232 227 232 237 231 229 223 216 211 211 210 217 223 229
153 202 217 212 231 233 222 224 227 228 235 234 232 235 232 210 191 194 205 217 225 233 252 244 225 204 207 216 225 222 215 219 226 228 230 228 218 208 203 198 206 225 239
223 218 215 212 234 256 249 238 238 238 238 239 238 234 232 222 202 190 198 211 219 228 241 248 216 208 220 226 214 215 217 224 227 233 233 235 222 211 214 205 208 213 232
260 250 237 234 232 234 241 252 251 247 236 236 248 240 238 235 222 202 206 212 214 214 207 218 219 208 214 217 215 213 216 216 224 234 233 227 221 219 221 214 211 217 224
267 258 250 248 240 232 226 236 263 244 240 236 244 236 232 226 216 205 207 212 214 194 198 224 223 219 220 223 222 220 219 219 222 225 230 231 230 228 227 223 219 226 235
271 268 263 262 255 248 240 235 239 241 241 242 243 235 228 229 224 208 203 209 211 188 212 230 232 228 225 227 226 225 224 218 216 223 226 231 230 232 234 234 231 232 238
274 276 268 263 267 261 259 259 255 247 246 246 233 213 205 213 222 220 193 176 220 213 229 233 235 235 234 231 229 230 224 216 217 224 223 223 226 231 237 237 234 235 239
295 290 291 289 283 272 262 260 263 261 252 244 239 198 196 205 212 211 180 217 240 238 239 245 244 242 245 246 243 238 229 224 220 219 222 224 226 231 235 234 235 239 236
293 286 275 274 271 268 267 263 257 251 251 241 239 213 162 166 196 202 212 232 244 245 248 249 250 251 247 250 249 248 246 241 231 225 226 227 229 233 240 241 237 231 232
295 285 270 269 266 265 266 265 261 258 258 254 242 211 181 202 210 216 225 230 239 245 245 249 245 250 252 251 251 255 259 257 249 247 246 242 243 246 246 245 242 237 236
287 283 280 282 287 290 287 277 272 264 258 257 246 211 199 223 229 226 226 229 236 249 259 262 261 253 259 261 257 253 257 264 261 256 256 254 252 259 260 257 258 253 245
290 283 274 290 301 300 290 290 286 281 277 276 277 229 206 239 249 246 242 236 231 237 246 255 261 268 264 261 255 248 254 258 258 255 260 266 263 262 262 261 261 262 252
299 299 295 292 284 274 280 289 294 294 296 298 288 268 239 244 257 260 259 256 259 252 239 239 247 257 264 262 255 254 280 302 295 271 259 259 259 258 256 253 253 255 254
305 312 315 316 318 313 308 309 310 313 315 317 313 296 288 270 271 289 310 291 284 282 275 264 258 260 273 279 279 283 292 314 308 307 286 266 260 261 263 261 255 253 250
317 320 326 333 337 334 328 326 331 333 327 325 320 310 315 327 326 319 319 311 304 304 307 295 287 300 315 324 14 49 45 358 296 275 273 268 262 263 271 268 263 258 253